Phoenix, AZ

7:26 AM MST on August 27, 2016 (GMT -0700)
Phoenix Sky Harbor International

Weather History for KPHX - March, 2013

Change the Weather History Date:

Monday, March 18, 2013

  Actual Average Record
Temperature  
Mean Temperature 72 °F 66 °F  
Max Temperature 86 °F 77 °F 94 °F (2007)
Min Temperature 58 °F 54 °F 36 °F (1954)
Degree Days  
Heating Degree Days 0 2  
Month to date heating degree days 34 58  
Since 1 July heating degree days 881 891  
Cooling Degree Days 7 3  
Month to date cooling degree days 73 37  
Year to date cooling degree days 81 54  
Growing Degree Days 22 (Base 50)    
Moisture  
Dew Point 30 °F    
Average Humidity 25    
Maximum Humidity 40    
Minimum Humidity 10    
Precipitation  
Precipitation 0.00 in 0.03 in 0.25 in (2012)
Month to date precipitation 0.85 0.66  
Year to date precipitation 2.55 2.49  
Snow  
Snow 0.00 in - - ()
Month to date snowfall 0.0  
Year to date snowfall 0.0  
Since 1 July snowfall 0.0  
Snow Depth 0.00 in    
Sea Level Pressure  
Sea Level Pressure 29.87 in    
Wind  
Wind Speed 5 mph (ESE)    
Max Wind Speed 14 mph    
Max Gust Speed 18 mph    
Visibility 10 miles    
Events      
T = Trace of Precipitation, MM = Missing Value Source: NWS Daily Summary

Daily Weather History Graph

Daily Weather History Graph

Search for Another Location

Airport or City:

Trip Planner

Search our weather history database for the weather conditions in past years. The results will help you decide how hot, cold, wet, or windy it might be!

Date:

Astronomy

Mar. 18, 2013 Rise Set
Actual Time 6:33 AM MST 6:38 PM MST
Civil Twilight 6:09 AM MST 7:03 PM MST
Nautical Twilight 5:40 AM MST 7:32 PM MST
Astronomical Twilight 5:11 AM MST 8:01 PM MST
Moon 10:53 AM MST (3/18) 12:24 AM MST (3/18)
Length of Visible Light 12h 53m
Length of Day
12h 04m
Waxing Crescent, 41% of the Moon is Illuminated
Mar 18
Waxing Crescent
Mar 19
First Quarter
Mar 27
Full
Apr 2
Last Quarter
Apr 10
New

Hourly Weather History & Observations

Time (MST) Temp. Dew Point Humidity Pressure Visibility Wind Dir Wind Speed Gust Speed Precip Events Conditions
12:51 AM 66.0 °F 25.0 °F 21% 29.81 in 10.0 mi ESE 6.9 mph - N/A   Partly Cloudy
1:51 AM 63.0 °F 28.9 °F 28% 29.82 in 10.0 mi East 6.9 mph - N/A   Partly Cloudy
2:51 AM 61.0 °F 33.1 °F 35% 29.83 in 10.0 mi East 8.1 mph - N/A   Clear
3:51 AM 60.1 °F 32.0 °F 35% 29.83 in 10.0 mi East 8.1 mph - N/A   Clear
4:51 AM 59.0 °F 34.0 °F 39% 29.84 in 10.0 mi East 6.9 mph - N/A   Clear
5:51 AM 57.9 °F 34.0 °F 41% 29.86 in 10.0 mi East 8.1 mph - N/A   Mostly Cloudy
6:51 AM 59.0 °F 35.1 °F 41% 29.88 in 10.0 mi East 5.8 mph - N/A   Mostly Cloudy
7:51 AM 61.0 °F 36.0 °F 39% 29.91 in 10.0 mi East 5.8 mph - N/A   Partly Cloudy
8:51 AM 66.9 °F 35.1 °F 31% 29.93 in 10.0 mi ESE 5.8 mph - N/A   Partly Cloudy
9:51 AM 72.0 °F 33.1 °F 24% 29.94 in 10.0 mi ESE 6.9 mph - N/A   Partly Cloudy
10:51 AM 75.9 °F 32.0 °F 20% 29.93 in 10.0 mi SSE 5.8 mph - N/A   Partly Cloudy
11:51 AM 78.1 °F 30.0 °F 17% 29.91 in 10.0 mi Calm Calm - N/A   Partly Cloudy
12:51 PM 81.0 °F 28.0 °F 14% 29.90 in 10.0 mi Variable 3.5 mph - N/A   Clear
1:51 PM 82.0 °F 27.0 °F 13% 29.88 in 10.0 mi Calm Calm - N/A   Clear
2:51 PM 82.9 °F 25.0 °F 12% 29.85 in 10.0 mi Variable 6.9 mph - N/A   Partly Cloudy
3:51 PM 84.0 °F 24.1 °F 11% 29.84 in 10.0 mi WSW 9.2 mph 18.4 mph N/A   Mostly Cloudy
4:51 PM 84.0 °F 25.0 °F 12% 29.84 in 10.0 mi WSW 3.5 mph - N/A   Mostly Cloudy
5:51 PM 82.0 °F 21.9 °F 11% 29.84 in 10.0 mi WNW 5.8 mph - N/A   Mostly Cloudy
6:51 PM 82.0 °F 24.1 °F 12% 29.84 in 10.0 mi WNW 8.1 mph - N/A   Mostly Cloudy
7:51 PM 81.0 °F 26.1 °F 13% 29.85 in 10.0 mi NW 3.5 mph - N/A   Mostly Cloudy
8:51 PM 73.9 °F 35.1 °F 24% 29.86 in 10.0 mi SW 3.5 mph - N/A   Mostly Cloudy
9:51 PM 73.0 °F 35.1 °F 25% 29.87 in 10.0 mi Calm Calm - N/A   Mostly Cloudy
10:51 PM 75.9 °F 30.0 °F 19% 29.86 in 10.0 mi Calm Calm - N/A   Mostly Cloudy
11:51 PM 71.1 °F 35.1 °F 27% 29.87 in 10.0 mi SE 3.5 mph - N/A   Mostly Cloudy